TimeCDT,TemperatureF,Dew PointF,Humidity,Sea Level PressureIn,VisibilityMPH,Wind Direction,Wind SpeedMPH,Gust SpeedMPH,PrecipitationIn,Events,Conditions,WindDirDegrees,DateUTC
12:15 AM,68.0,55.4,64,29.79,10.0,South,12.7,19.6,N/A,,Overcast,180,2013-04-08 05:15:00
12:35 AM,68.0,55.4,64,29.78,10.0,South,13.8,19.6,N/A,,Mostly Cloudy,170,2013-04-08 05:35:00
12:55 AM,68.0,55.4,64,29.78,10.0,South,11.5,18.4,N/A,,Clear,170,2013-04-08 05:55:00
1:15 AM,68.0,55.4,64,29.77,10.0,South,13.8,-,N/A,,Clear,170,2013-04-08 06:15:00
1:35 AM,68.0,55.4,64,29.77,10.0,SSE,6.9,-,N/A,,Scattered Clouds,160,2013-04-08 06:35:00
1:55 AM,64.4,55.4,73,29.77,10.0,SE,6.9,-,N/A,,Scattered Clouds,140,2013-04-08 06:55:00
2:15 AM,64.4,55.4,73,29.76,10.0,ESE,4.6,-,N/A,,Scattered Clouds,120,2013-04-08 07:15:00
2:35 AM,64.4,55.4,73,29.75,10.0,SE,5.8,-,N/A,,Mostly Cloudy,140,2013-04-08 07:35:00
2:55 AM,64.4,55.4,73,29.74,10.0,SE,4.6,-,N/A,,Overcast,140,2013-04-08 07:55:00
3:15 AM,64.4,55.4,73,29.74,10.0,South,4.6,-,N/A,,Mostly Cloudy,170,2013-04-08 08:15:00
3:35 AM,64.4,55.4,73,29.73,10.0,SSE,6.9,-,N/A,,Scattered Clouds,160,2013-04-08 08:35:00
3:55 AM,64.4,55.4,73,29.73,10.0,South,9.2,-,N/A,Thunderstorm,Scattered Clouds,180,2013-04-08 08:55:00
4:15 AM,64.4,55.4,73,29.71,10.0,SSE,10.4,-,N/A,Rain-Thunderstorm,Light Thunderstorms and Rain,160,2013-04-08 09:15:00
4:35 AM,64.4,57.2,77,29.74,10.0,South,9.2,-,N/A,Rain-Thunderstorm,Thunderstorms and Rain,190,2013-04-08 09:35:00
4:55 AM,62.6,62.6,100,29.74,7.0,South,11.5,-,N/A,Rain-Thunderstorm,Thunderstorms and Rain,190,2013-04-08 09:55:00
5:15 AM,62.6,62.6,100,29.73,10.0,South,15.0,20.7,N/A,Rain,Light Rain,180,2013-04-08 10:15:00
5:35 AM,62.6,62.6,100,29.74,7.0,South,16.1,-,N/A,,Drizzle,180,2013-04-08 10:35:00
5:55 AM,62.6,62.6,100,29.74,10.0,SSE,10.4,-,N/A,,Light Drizzle,160,2013-04-08 10:55:00
6:15 AM,62.6,62.6,100,29.74,10.0,SSE,8.1,-,N/A,,Overcast,160,2013-04-08 11:15:00
6:35 AM,64.4,60.8,88,29.75,10.0,SSE,8.1,-,N/A,,Overcast,160,2013-04-08 11:35:00
6:55 AM,64.4,59.0,83,29.75,10.0,SSE,13.8,20.7,N/A,,Overcast,150,2013-04-08 11:55:00
7:15 AM,64.4,59.0,83,29.76,10.0,SSE,10.4,19.6,N/A,,Mostly Cloudy,160,2013-04-08 12:15:00
7:35 AM,64.4,59.0,83,29.77,10.0,SSE,15.0,19.6,N/A,,Mostly Cloudy,160,2013-04-08 12:35:00
7:55 AM,64.4,59.0,83,29.77,10.0,SSE,16.1,21.9,N/A,,Overcast,160,2013-04-08 12:55:00
8:15 AM,64.4,59.0,83,29.77,10.0,SSE,16.1,21.9,N/A,,Overcast,160,2013-04-08 13:15:00
8:35 AM,64.4,59.0,83,29.77,10.0,SSE,16.1,21.9,N/A,,Overcast,160,2013-04-08 13:35:00
8:55 AM,64.4,59.0,83,29.77,10.0,SSE,17.3,27.6,N/A,,Mostly Cloudy,160,2013-04-08 13:55:00
9:15 AM,64.4,59.0,83,29.77,10.0,SSE,18.4,28.8,N/A,,Mostly Cloudy,160,2013-04-08 14:15:00
9:35 AM,64.4,59.0,83,29.78,10.0,South,17.3,26.5,N/A,,Overcast,170,2013-04-08 14:35:00
9:55 AM,66.2,59.0,78,29.79,10.0,South,17.3,23.0,N/A,,Overcast,170,2013-04-08 14:55:00
10:15 AM,66.2,59.0,78,29.79,10.0,South,17.3,23.0,N/A,,Overcast,180,2013-04-08 15:15:00
10:35 AM,66.2,59.0,78,29.80,10.0,South,18.4,-,N/A,,Overcast,170,2013-04-08 15:35:00
10:55 AM,68.0,59.0,73,29.80,10.0,South,19.6,25.3,N/A,,Overcast,170,2013-04-08 15:55:00
11:15 AM,69.8,60.8,73,29.79,10.0,South,17.3,24.2,N/A,,Overcast,170,2013-04-08 16:15:00
11:35 AM,69.8,59.0,68,29.79,10.0,South,20.7,29.9,N/A,,Overcast,170,2013-04-08 16:35:00
11:55 AM,69.8,60.8,73,29.78,10.0,South,19.6,29.9,N/A,,Scattered Clouds,170,2013-04-08 16:55:00
12:15 PM,69.8,59.0,68,29.78,10.0,South,20.7,28.8,N/A,,Clear,180,2013-04-08 17:15:00
12:35 PM,71.6,60.8,69,29.78,10.0,SSE,19.6,25.3,N/A,,Scattered Clouds,160,2013-04-08 17:35:00
12:55 PM,71.6,59.0,64,29.77,10.0,South,18.4,26.5,N/A,,Mostly Cloudy,170,2013-04-08 17:55:00
1:15 PM,73.4,60.8,65,29.76,10.0,South,15.0,25.3,N/A,,Overcast,170,2013-04-08 18:15:00
1:35 PM,71.6,60.8,69,29.75,10.0,SSE,17.3,24.2,N/A,,Overcast,160,2013-04-08 18:35:00
1:55 PM,71.6,59.0,64,29.74,10.0,SSE,19.6,24.2,N/A,,Overcast,160,2013-04-08 18:55:00
2:15 PM,73.4,60.8,65,29.73,10.0,SSE,18.4,26.5,N/A,,Overcast,160,2013-04-08 19:15:00
2:35 PM,73.4,60.8,65,29.73,10.0,SSE,15.0,25.3,N/A,,Overcast,160,2013-04-08 19:35:00
2:55 PM,75.2,60.8,61,29.73,10.0,South,19.6,23.0,N/A,,Mostly Cloudy,170,2013-04-08 19:55:00
3:15 PM,71.6,59.0,64,29.74,10.0,SSE,15.0,20.7,N/A,,Mostly Cloudy,160,2013-04-08 20:15:00
3:35 PM,71.6,59.0,64,29.74,10.0,SSE,13.8,19.6,N/A,,Overcast,160,2013-04-08 20:35:00
3:55 PM,69.8,59.0,68,29.73,10.0,SSE,10.4,17.3,N/A,,Overcast,160,2013-04-08 20:55:00
4:15 PM,69.8,60.8,73,29.73,10.0,SE,9.2,-,N/A,,Overcast,130,2013-04-08 21:15:00
4:35 PM,69.8,60.8,73,29.73,10.0,SE,11.5,-,N/A,,Overcast,130,2013-04-08 21:35:00
4:55 PM,69.8,60.8,73,29.72,10.0,SE,9.2,-,N/A,,Overcast,130,2013-04-08 21:55:00
5:15 PM,69.8,60.8,73,29.72,10.0,ESE,8.1,-,N/A,,Overcast,120,2013-04-08 22:15:00
5:35 PM,71.6,60.8,69,29.72,10.0,ESE,9.2,-,N/A,,Overcast,120,2013-04-08 22:35:00
5:55 PM,71.6,60.8,69,29.72,10.0,SE,8.1,-,N/A,,Overcast,140,2013-04-08 22:55:00
6:15 PM,71.6,60.8,69,29.72,10.0,SE,9.2,-,N/A,,Overcast,130,2013-04-08 23:15:00
6:35 PM,71.6,60.8,69,29.72,10.0,SE,8.1,-,N/A,,Overcast,140,2013-04-08 23:35:00
6:55 PM,71.6,60.8,69,29.73,10.0,SE,6.9,-,N/A,,Overcast,140,2013-04-08 23:55:00
7:15 PM,71.6,60.8,69,29.73,10.0,SE,6.9,-,N/A,,Overcast,140,2013-04-09 00:15:00
7:35 PM,71.6,60.8,69,29.73,10.0,SE,5.8,-,N/A,,Overcast,130,2013-04-09 00:35:00
7:55 PM,71.6,60.8,69,29.73,10.0,SE,6.9,-,N/A,,Overcast,130,2013-04-09 00:55:00
8:15 PM,71.6,60.8,69,29.73,10.0,SE,4.6,-,N/A,,Overcast,130,2013-04-09 01:15:00
8:35 PM,69.8,60.8,73,29.73,10.0,SE,8.1,-,N/A,,Mostly Cloudy,140,2013-04-09 01:35:00
8:55 PM,69.8,60.8,73,29.73,10.0,SE,6.9,-,N/A,,Mostly Cloudy,130,2013-04-09 01:55:00
9:15 PM,68.0,60.8,78,29.73,10.0,SE,8.1,-,N/A,,Scattered Clouds,130,2013-04-09 02:15:00
9:35 PM,68.0,60.8,78,29.73,10.0,SE,8.1,-,N/A,,Scattered Clouds,130,2013-04-09 02:35:00
9:55 PM,68.0,59.0,73,29.73,10.0,SE,6.9,-,N/A,,Clear,130,2013-04-09 02:55:00
10:15 PM,68.0,59.0,73,29.73,10.0,ESE,6.9,-,N/A,,Scattered Clouds,120,2013-04-09 03:15:00
10:35 PM,68.0,59.0,73,29.72,10.0,SE,6.9,-,N/A,,Mostly Cloudy,130,2013-04-09 03:35:00
10:55 PM,68.0,59.0,73,29.73,10.0,SE,6.9,-,N/A,,Overcast,140,2013-04-09 03:55:00
11:15 PM,68.0,59.0,73,29.73,10.0,SE,5.8,-,N/A,,Overcast,130,2013-04-09 04:15:00
11:35 PM,69.8,59.0,68,29.73,10.0,ESE,5.8,-,N/A,,Overcast,120,2013-04-09 04:35:00
11:55 PM,68.0,59.0,73,29.72,10.0,ESE,5.8,-,N/A,,Overcast,110,2013-04-09 04:55:00